Location: Unspecified
(29.7308°N, 0.0000°E)
Time: 14:08:13
(UTC+00:00)

DMSP-16 DEB - Visible Passes

Search period start: 04 April 2026 00:00
Search period end: 14 April 2026 00:00
Orbit: 781 x 786 km, 98.8° (Epoch: 29 March)

Date Brightness Start Highest point End Pass type
(mag) Time Alt. Az. Time Alt. Az. Time Alt. Az.
4 Apr ? 19:11:35 10° SW 19:14:11 14° W 19:16:49 10° WNW visible
6 Apr ? 05:18:34 10° ENE 05:20:48 13° E 05:23:01 10° ESE visible
7 Apr ? 19:17:16 10° WSW 19:19:17 12° W 19:21:20 10° WNW visible
8 Apr ? 18:43:20 10° SSW 18:47:39 27° W 18:52:01 10° NW visible
10 Apr ? 19:23:15 10° WSW 19:24:21 11° W 19:25:27 10° W visible
11 Apr ? 18:48:33 10° SSW 18:52:42 24° W 18:56:50 10° NW visible
